QPF
0.00 0.00 0.00 0.00 0.00 0.01 0.01 0.02 0.03 0.05 0.05 0.05 0.04 0.06 0.09 0.10 0.10 0.07 0.06 0.07 0.05 0.04 0.04 0.05 0.09 0.07 0.07 0.07 0.07 0.08 0.07 0.06 0.04 0.08 0.09 0.08 0.06 0.05 0.03 0.02 0.02 0.01 0.02
0.00 0.00 0.00 0.00 0.00 0.01 0.02 0.02 0.03 0.05 0.06 0.07 0.06 0.08 0.13 0.13 0.13 0.11 0.13 0.10 0.07 0.07 0.05 0.07 0.09 0.08 0.09 0.08 0.09 0.10 0.11 0.10 0.07 0.07 0.10 0.12 0.12 0.08 0.02 0.02 0.02 0.02 0.02
0.00 0.00 0.00 0.00 0.00 0.01 0.01 0.02 0.03 0.05 0.07 0.10 0.11 0.12 0.17 0.15 0.14 0.14 0.14 0.12 0.10 0.08 0.07 0.07 0.06 0.09 0.08 0.09 0.09 0.09 0.10 0.12 0.09 0.05 0.06 0.09 0.13 0.10 0.05 0.02 0.01 0.02 0.03
0.00 0.00 0.00 0.01 0.01 0.02 0.01 0.02 0.03 0.05 0.06 0.10 0.12 0.11 0.12 0.10 0.09 0.11 0.12 0.12 0.12 0.09 0.07 0.07 0.07 0.07 0.07 0.12 0.07 0.08 0.11 0.12 0.08 0.07 0.04 0.04 0.06 0.08 0.09 0.06 0.03 0.04 0.03
0.00 0.00 0.01 0.01 0.02 0.03 0.02 0.02 0.05 0.07 0.08 0.11 0.11 0.11 0.12 0.12 0.12 0.13 0.15 0.13 0.12 0.09 0.07 0.07 0.09 0.07 0.07 0.10 0.09 0.12 0.09 0.07 0.05 0.05 0.06 0.06 0.06 0.04 0.06 0.09 0.08 0.05 0.02
0.00 0.00 0.01 0.01 0.02 0.04 0.04 0.03 0.05 0.08 0.09 0.10 0.12 0.12 0.14 0.17 0.18 0.16 0.13 0.13 0.13 0.12 0.10 0.11 0.11 0.08 0.08 0.11 0.10 0.11 0.09 0.10 0.09 0.08 0.06 0.06 0.05 0.05 0.07 0.09 0.08 0.06 0.02
0.00 0.00 0.01 0.01 0.01 0.02 0.03 0.04 0.05 0.08 0.09 0.09 0.12 0.12 0.13 0.17 0.17 0.15 0.14 0.13 0.14 0.12 0.12 0.13 0.12 0.10 0.10 0.11 0.12 0.12 0.11 0.10 0.09 0.07 0.07 0.05 0.03 0.03 0.05 0.07 0.06 0.04 0.02
0.00 0.00 0.01 0.01 0.01 0.01 0.02 0.04 0.05 0.07 0.08 0.09 0.14 0.12 0.12 0.14 0.19 0.22 0.19 0.17 0.15 0.12 0.12 0.13 0.11 0.11 0.10 0.10 0.13 0.12 0.11 0.11 0.10 0.07 0.08 0.07 0.03 0.03 0.05 0.06 0.06 0.05 0.05
0.00 0.00 0.00 0.00 0.01 0.01 0.02 0.03 0.05 0.07 0.08 0.10 0.13 0.12 0.12 0.12 0.17 0.21 0.22 0.19 0.17 0.14 0.13 0.12 0.12 0.12 0.13 0.14 0.16 0.12 0.13 0.14 0.11 0.09 0.09 0.08 0.05 0.04 0.04 0.05 0.08 0.09 0.09
0.00 0.00 0.00 0.01 0.02 0.02 0.03 0.04 0.04 0.06 0.08 0.11 0.11 0.08 0.13 0.14 0.15 0.17 0.19 0.19 0.17 0.18 0.17 0.15 0.14 0.12 0.12 0.14 0.15 0.14 0.14 0.16 0.15 0.14 0.14 0.13 0.10 0.09 0.07 0.07 0.07 0.08 0.10
0.01 0.01 0.02 0.03 0.04 0.02 0.03 0.04 0.05 0.06 0.08 0.11 0.10 0.10 0.12 0.14 0.16 0.15 0.16 0.18 0.17 0.16 0.15 0.15 0.15 0.14 0.12 0.14 0.14 0.13 0.13 0.13 0.14 0.14 0.15 0.15 0.14 0.12 0.08 0.06 0.06 0.07 0.08
0.01 0.02 0.01 0.01 0.02 0.02 0.03 0.04 0.06 0.06 0.08 0.11 0.11 0.12 0.14 0.13 0.13 0.13 0.13 0.15 0.16 0.14 0.12 0.13 0.14 0.13 0.13 0.15 0.15 0.14 0.14 0.13 0.13 0.14 0.14 0.12 0.12 0.11 0.09 0.09 0.09 0.10 0.11
0.01 0.04 0.02 0.01 0.01 0.01 0.02 0.03 0.04 0.05 0.07 0.09 0.11 0.14 0.14 0.14 0.14 0.16 0.17 0.17 0.15 0.13 0.13 0.13 0.12 0.13 0.14 0.15 0.15 0.16 0.16 0.15 0.13 0.13 0.12 0.10 0.11 0.10 0.09 0.10 0.09 0.09 0.08
0.01 0.03 0.03 0.02 0.01 0.01 0.02 0.03 0.04 0.04 0.06 0.09 0.11 0.13 0.14 0.14 0.16 0.17 0.17 0.17 0.16 0.15 0.14 0.15 0.14 0.14 0.14 0.14 0.16 0.17 0.17 0.15 0.13 0.13 0.12 0.10 0.10 0.10 0.11 0.11 0.11 0.10 0.10
0.01 0.01 0.02 0.04 0.02 0.02 0.03 0.04 0.04 0.04 0.05 0.09 0.10 0.11 0.11 0.11 0.13 0.15 0.16 0.15 0.15 0.14 0.15 0.16 0.16 0.15 0.14 0.11 0.12 0.14 0.15 0.13 0.12 0.12 0.11 0.11 0.13 0.14 0.12 0.10 0.12 0.12 0.11
0.01 0.01 0.01 0.01 0.01 0.02 0.03 0.04 0.05 0.04 0.05 0.07 0.07 0.08 0.08 0.08 0.09 0.12 0.14 0.14 0.14 0.16 0.15 0.14 0.14 0.14 0.11 0.11 0.11 0.14 0.16 0.15 0.14 0.15 0.14 0.12 0.14 0.11 0.09 0.07 0.07 0.07 0.08
0.00 0.00 0.01 0.02 0.02 0.02 0.03 0.05 0.06 0.07 0.08 0.08 0.09 0.08 0.05 0.06 0.07 0.09 0.12 0.16 0.15 0.15 0.14 0.15 0.16 0.16 0.15 0.14 0.12 0.10 0.12 0.15 0.17 0.18 0.17 0.13 0.12 0.13 0.13 0.11 0.08 0.07 0.06
0.00 0.00 0.01 0.01 0.02 0.03 0.04 0.04 0.06 0.08 0.10 0.11 0.12 0.09 0.06 0.06 0.08 0.09 0.10 0.14 0.18 0.17 0.15 0.17 0.18 0.17 0.16 0.15 0.13 0.12 0.13 0.16 0.17 0.16 0.17 0.17 0.15 0.13 0.13 0.13 0.13 0.10 0.09
0.01 0.01 0.01 0.02 0.02 0.02 0.03 0.04 0.05 0.07 0.08 0.07 0.07 0.06 0.05 0.05 0.06 0.07 0.10 0.12 0.15 0.17 0.17 0.19 0.20 0.17 0.15 0.14 0.13 0.13 0.15 0.16 0.15 0.14 0.14 0.15 0.14 0.12 0.11 0.13 0.14 0.12 0.11
0.01 0.01 0.01 0.02 0.02 0.02 0.03 0.04 0.03 0.04 0.06 0.07 0.07 0.07 0.07 0.08 0.08 0.09 0.13 0.14 0.15 0.14 0.15 0.16 0.17 0.16 0.14 0.14 0.13 0.13 0.14 0.13 0.12 0.12 0.12 0.12 0.09 0.08 0.09 0.11 0.13 0.14 0.14
0.01 0.01 0.01 0.02 0.03 0.03 0.03 0.03 0.05 0.07 0.08 0.07 0.07 0.07 0.09 0.11 0.12 0.12 0.13 0.12 0.11 0.10 0.10 0.13 0.15 0.15 0.15 0.15 0.12 0.10 0.11 0.13 0.12 0.11 0.10 0.08 0.08 0.07 0.08 0.08 0.08 0.08 0.08
0.01 0.01 0.02 0.04 0.05 0.05 0.04 0.05 0.06 0.06 0.06 0.08 0.09 0.10 0.11 0.10 0.11 0.12 0.12 0.13 0.12 0.09 0.09 0.10 0.13 0.17 0.15 0.15 0.16 0.14 0.13 0.12 0.11 0.09 0.08 0.08 0.09 0.08 0.08 0.07 0.06 0.06 0.06
0.01 0.01 0.02 0.02 0.03 0.04 0.06 0.06 0.07 0.07 0.06 0.07 0.08 0.09 0.10 0.11 0.12 0.12 0.13 0.13 0.11 0.09 0.09 0.09 0.08 0.07 0.09 0.11 0.12 0.11 0.11 0.10 0.07 0.06 0.05 0.05 0.04 0.04 0.04 0.06 0.07 0.08 0.09
0.01 0.01 0.02 0.02 0.03 0.03 0.04 0.06 0.07 0.07 0.07 0.05 0.05 0.05 0.06 0.08 0.08 0.09 0.11 0.11 0.09 0.07 0.07 0.07 0.06 0.06 0.07 0.08 0.08 0.07 0.06 0.06 0.04 0.04 0.03 0.02 0.02 0.03 0.03 0.04 0.04 0.04 0.06
0.01 0.01 0.02 0.02 0.03 0.04 0.04 0.04 0.06 0.06 0.05 0.04 0.04 0.04 0.04 0.04 0.03 0.03 0.04 0.05 0.06 0.08 0.07 0.05 0.06 0.07 0.07 0.07 0.06 0.04 0.04 0.03 0.03 0.03 0.03 0.04 0.04 0.04 0.05 0.05 0.06 0.06 0.08
0.01 0.01 0.02 0.03 0.04 0.05 0.05 0.04 0.05 0.04 0.03 0.03 0.04 0.04 0.04 0.03 0.02 0.02 0.03 0.05 0.06 0.08 0.07 0.05 0.04 0.04 0.03 0.03 0.03 0.02 0.02 0.02 0.02 0.02 0.02 0.02 0.03 0.03 0.03 0.03 0.04 0.04 0.04
MSLP
1006.83 1007.50 1008.19 1008.88 1009.53 1010.12 1010.64 1011.09 1011.49 1011.84 1012.15 1012.43 1012.67 1012.89 1013.08 1013.26 1013.42 1013.59 1013.78 1013.99 1014.24 1014.52 1014.84 1015.17 1015.53 1015.88 1016.23 1016.56 1016.89 1017.21 1017.52 1017.83 1018.13 1018.41 1018.65 1018.85 1018.98 1019.04 1019.02 1018.96 1018.86 1018.78 1018.74
1006.98 1007.63 1008.30 1008.95 1009.55 1010.10 1010.58 1011.02 1011.43 1011.81 1012.18 1012.52 1012.83 1013.10 1013.32 1013.49 1013.62 1013.74 1013.86 1014.02 1014.21 1014.46 1014.77 1015.11 1015.48 1015.85 1016.22 1016.56 1016.89 1017.20 1017.51 1017.81 1018.12 1018.41 1018.67 1018.89 1019.04 1019.10 1019.06 1018.95 1018.80 1018.63 1018.49
1007.03 1007.65 1008.28 1008.89 1009.44 1009.94 1010.39 1010.81 1011.22 1011.65 1012.08 1012.50 1012.89 1013.23 1013.50 1013.70 1013.83 1013.91 1013.99 1014.09 1014.24 1014.45 1014.73 1015.07 1015.43 1015.80 1016.16 1016.49 1016.80 1017.09 1017.37 1017.66 1017.96 1018.26 1018.55 1018.80 1018.97 1019.06 1019.04 1018.92 1018.74 1018.51 1018.30
1006.94 1007.53 1008.13 1008.70 1009.21 1009.67 1010.08 1010.49 1010.91 1011.37 1011.85 1012.35 1012.82 1013.24 1013.58 1013.82 1013.96 1014.05 1014.10 1014.17 1014.27 1014.45 1014.69 1015.00 1015.34 1015.69 1016.02 1016.33 1016.61 1016.88 1017.13 1017.40 1017.69 1018.00 1018.31 1018.59 1018.81 1018.93 1018.95 1018.86 1018.67 1018.42 1018.16
1006.72 1007.28 1007.87 1008.42 1008.91 1009.33 1009.72 1010.10 1010.53 1011.00 1011.52 1012.07 1012.61 1013.10 1013.51 1013.80 1013.98 1014.07 1014.12 1014.17 1014.24 1014.38 1014.59 1014.87 1015.18 1015.51 1015.82 1016.10 1016.36 1016.59 1016.82 1017.07 1017.35 1017.66 1017.98 1018.29 1018.55 1018.73 1018.80 1018.74 1018.58 1018.34 1018.05
1006.39 1006.96 1007.54 1008.09 1008.57 1008.98 1009.34 1009.70 1010.11 1010.58 1011.11 1011.69 1012.27 1012.81 1013.26 1013.60 1013.82 1013.93 1013.99 1014.03 1014.09 1014.21 1014.39 1014.64 1014.93 1015.24 1015.53 1015.80 1016.04 1016.26 1016.48 1016.71 1016.97 1017.28 1017.60 1017.93 1018.22 1018.44 1018.56 1018.56 1018.44 1018.22 1017.93
1006.04 1006.61 1007.21 1007.77 1008.25 1008.65 1008.99 1009.33 1009.70 1010.15 1010.66 1011.23 1011.82 1012.37 1012.85 1013.21 1013.46 1013.60 1013.67 1013.72 1013.77 1013.88 1014.05 1014.29 1014.57 1014.87 1015.17 1015.44 1015.69 1015.90 1016.12 1016.34 1016.59 1016.88 1017.20 1017.53 1017.83 1018.09 1018.24 1018.29 1018.22 1018.04 1017.78
1005.73 1006.32 1006.93 1007.50 1007.99 1008.38 1008.70 1009.01 1009.34 1009.73 1010.19 1010.72 1011.28 1011.81 1012.29 1012.66 1012.92 1013.08 1013.17 1013.22 1013.29 1013.40 1013.57 1013.81 1014.09 1014.41 1014.72 1015.02 1015.29 1015.52 1015.75 1015.97 1016.22 1016.49 1016.79 1017.10 1017.40 1017.66 1017.84 1017.93 1017.91 1017.79 1017.57
1005.53 1006.12 1006.74 1007.32 1007.81 1008.19 1008.49 1008.75 1009.03 1009.36 1009.75 1010.21 1010.70 1011.19 1011.63 1011.99 1012.25 1012.42 1012.52 1012.59 1012.66 1012.78 1012.96 1013.21 1013.51 1013.85 1014.20 1014.53 1014.84 1015.11 1015.36 1015.59 1015.84 1016.09 1016.37 1016.65 1016.93 1017.18 1017.37 1017.50 1017.53 1017.47 1017.32
1005.47 1006.05 1006.67 1007.24 1007.72 1008.08 1008.35 1008.58 1008.79 1009.05 1009.36 1009.73 1010.14 1010.56 1010.95 1011.27 1011.51 1011.68 1011.78 1011.86 1011.94 1012.07 1012.26 1012.52 1012.84 1013.21 1013.59 1013.97 1014.32 1014.64 1014.93 1015.19 1015.44 1015.68 1015.93 1016.19 1016.45 1016.68 1016.88 1017.03 1017.11 1017.12 1017.06
1005.58 1006.14 1006.73 1007.28 1007.73 1008.06 1008.30 1008.48 1008.64 1008.82 1009.05 1009.33 1009.65 1009.99 1010.31 1010.58 1010.79 1010.93 1011.03 1011.11 1011.20 1011.33 1011.53 1011.79 1012.13 1012.51 1012.92 1013.34 1013.74 1014.11 1014.44 1014.73 1015.01 1015.26 1015.51 1015.75 1015.98 1016.21 1016.42 1016.60 1016.73 1016.81 1016.83
1005.83 1006.36 1006.91 1007.41 1007.82 1008.12 1008.33 1008.47 1008.57 1008.69 1008.85 1009.04 1009.27 1009.52 1009.76 1009.97 1010.14 1010.26 1010.34 1010.42 1010.50 1010.63 1010.81 1011.07 1011.40 1011.79 1012.21 1012.65 1013.09 1013.51 1013.89 1014.24 1014.55 1014.83 1015.10 1015.35 1015.59 1015.82 1016.05 1016.26 1016.44 1016.58 1016.68
1006.22 1006.71 1007.20 1007.65 1008.00 1008.26 1008.43 1008.53 1008.60 1008.66 1008.74 1008.86 1009.01 1009.17 1009.34 1009.49 1009.61 1009.70 1009.76 1009.82 1009.89 1010.01 1010.17 1010.41 1010.71 1011.09 1011.51 1011.96 1012.42 1012.88 1013.32 1013.72 1014.09 1014.43 1014.74 1015.03 1015.30 1015.56 1015.82 1016.06 1016.29 1016.49 1016.66
1006.72 1007.16 1007.59 1007.96 1008.27 1008.48 1008.61 1008.68 1008.71 1008.72 1008.75 1008.79 1008.86 1008.95 1009.05 1009.13 1009.21 1009.27 1009.31 1009.36 1009.42 1009.51 1009.65 1009.85 1010.13 1010.46 1010.86 1011.30 1011.78 1012.27 1012.76 1013.23 1013.68 1014.09 1014.48 1014.83 1015.16 1015.46 1015.75 1016.03 1016.29 1016.54 1016.75
1007.29 1007.68 1008.04 1008.35 1008.60 1008.77 1008.86 1008.90 1008.89 1008.87 1008.84 1008.82 1008.82 1008.83 1008.86 1008.90 1008.93 1008.97 1009.00 1009.04 1009.09 1009.17 1009.29 1009.46 1009.69 1009.99 1010.35 1010.77 1011.24 1011.76 1012.29 1012.83 1013.36 1013.86 1014.33 1014.77 1015.17 1015.53 1015.86 1016.17 1016.46 1016.72 1016.95
1007.89 1008.24 1008.54 1008.79 1008.98 1009.11 1009.17 1009.17 1009.14 1009.07 1009.00 1008.92 1008.85 1008.80 1008.77 1008.77 1008.77 1008.80 1008.83 1008.88 1008.94 1009.02 1009.13 1009.27 1009.47 1009.72 1010.04 1010.44 1010.90 1011.42 1011.99 1012.59 1013.20 1013.79 1014.35 1014.87 1015.34 1015.76 1016.13 1016.45 1016.74 1016.99 1017.21
1008.49 1008.80 1009.06 1009.26 1009.40 1009.48 1009.51 1009.49 1009.42 1009.32 1009.20 1009.07 1008.95 1008.85 1008.78 1008.74 1008.74 1008.77 1008.83 1008.90 1008.99 1009.09 1009.21 1009.34 1009.51 1009.73 1010.02 1010.38 1010.82 1011.34 1011.93 1012.57 1013.24 1013.90 1014.54 1015.13 1015.66 1016.12 1016.51 1016.83 1017.09 1017.31 1017.48
1009.05 1009.33 1009.54 1009.70 1009.80 1009.86 1009.86 1009.82 1009.73 1009.61 1009.45 1009.29 1009.13 1008.99 1008.89 1008.85 1008.86 1008.91 1009.01 1009.14 1009.28 1009.42 1009.57 1009.72 1009.89 1010.09 1010.34 1010.66 1011.08 1011.58 1012.17 1012.82 1013.52 1014.22 1014.91 1015.54 1016.10 1016.57 1016.95 1017.25 1017.47 1017.62 1017.73
1009.53 1009.78 1009.97 1010.09 1010.17 1010.20 1010.20 1010.15 1010.05 1009.92 1009.75 1009.57 1009.39 1009.25 1009.15 1009.12 1009.16 1009.27 1009.43 1009.63 1009.84 1010.05 1010.24 1010.42 1010.60 1010.79 1011.02 1011.31 1011.68 1012.15 1012.71 1013.34 1014.03 1014.74 1015.43 1016.07 1016.62 1017.08 1017.43 1017.67 1017.83 1017.91 1017.94
1009.90 1010.13 1010.29 1010.40 1010.47 1010.51 1010.51 1010.47 1010.39 1010.27 1010.12 1009.95 1009.79 1009.67 1009.60 1009.61 1009.71 1009.88 1010.12 1010.40 1010.69 1010.97 1011.22 1011.45 1011.64 1011.83 1012.03 1012.29 1012.61 1013.02 1013.53 1014.11 1014.75 1015.42 1016.07 1016.67 1017.18 1017.59 1017.89 1018.07 1018.16 1018.17 1018.13
1010.17 1010.39 1010.53 1010.63 1010.71 1010.77 1010.80 1010.80 1010.77 1010.69 1010.59 1010.47 1010.36 1010.29 1010.28 1010.35 1010.51 1010.76 1011.08 1011.44 1011.81 1012.16 1012.47 1012.73 1012.95 1013.13 1013.31 1013.52 1013.78 1014.12 1014.55 1015.05 1015.61 1016.20 1016.77 1017.30 1017.75 1018.10 1018.33 1018.44 1018.46 1018.41 1018.31
1010.37 1010.57 1010.71 1010.81 1010.92 1011.01 1011.10 1011.17 1011.21 1011.21 1011.18 1011.14 1011.11 1011.12 1011.18 1011.32 1011.56 1011.88 1012.27 1012.70 1013.14 1013.54 1013.90 1014.19 1014.41 1014.59 1014.74 1014.90 1015.09 1015.35 1015.67 1016.07 1016.53 1017.01 1017.49 1017.92 1018.29 1018.56 1018.72 1018.78 1018.75 1018.66 1018.52
1010.53 1010.72 1010.86 1011.00 1011.14 1011.29 1011.45 1011.60 1011.73 1011.83 1011.90 1011.96 1012.02 1012.12 1012.26 1012.48 1012.78 1013.17 1013.61 1014.08 1014.56 1015.00 1015.38 1015.68 1015.90 1016.06 1016.18 1016.28 1016.40 1016.57 1016.79 1017.08 1017.42 1017.78 1018.15 1018.49 1018.77 1018.97 1019.08 1019.09 1019.04 1018.92 1018.77
1010.72 1010.90 1011.07 1011.23 1011.42 1011.64 1011.88 1012.12 1012.34 1012.55 1012.73 1012.88 1013.04 1013.21 1013.43 1013.71 1014.06 1014.48 1014.95 1015.45 1015.93 1016.38 1016.76 1017.06 1017.27 1017.40 1017.48 1017.53 1017.59 1017.67 1017.80 1017.98 1018.21 1018.46 1018.73 1018.97 1019.17 1019.32 1019.39 1019.39 1019.33 1019.22 1019.08
1010.97 1011.17 1011.37 1011.57 1011.82 1012.10 1012.41 1012.73 1013.04 1013.33 1013.59 1013.82 1014.05 1014.29 1014.56 1014.87 1015.25 1015.68 1016.14 1016.63 1017.11 1017.54 1017.90 1018.18 1018.38 1018.49 1018.53 1018.55 1018.55 1018.56 1018.61 1018.71 1018.84 1019.01 1019.18 1019.35 1019.50 1019.61 1019.66 1019.67 1019.62 1019.55 1019.44
1011.33 1011.56 1011.79 1012.04 1012.33 1012.66 1013.02 1013.40 1013.76 1014.10 1014.40 1014.68 1014.94 1015.21 1015.49 1015.82 1016.19 1016.60 1017.05 1017.51 1017.95 1018.36 1018.70 1018.97 1019.14 1019.24 1019.27 1019.26 1019.23 1019.21 1019.21 1019.24 1019.31 1019.41 1019.53 1019.65 1019.77 1019.86 1019.92 1019.94 1019.93 1019.89 1019.84
Thickness
5834 5831 5827 5823 5817 5810 5804 5798 5791 5787 5782 5776 5771 5767 5766 5767 5767 5768 5767 5764 5763 5762 5761 5762 5760 5759 5759 5758 5758 5756 5754 5753 5754 5750 5748 5751 5755 5755 5756 5756 5754 5753 5752
5829 5826 5824 5820 5814 5808 5802 5797 5791 5786 5781 5777 5773 5770 5768 5766 5766 5766 5765 5764 5762 5761 5760 5759 5759 5758 5757 5757 5757 5755 5752 5752 5754 5749 5742 5739 5743 5750 5757 5756 5754 5754 5753
5827 5823 5820 5817 5813 5807 5802 5797 5791 5786 5781 5777 5772 5768 5765 5763 5762 5762 5762 5763 5762 5760 5760 5759 5758 5758 5757 5755 5755 5754 5751 5747 5751 5753 5746 5737 5734 5741 5750 5754 5755 5755 5754
5831 5826 5821 5815 5812 5807 5803 5798 5791 5786 5781 5776 5770 5765 5760 5758 5760 5761 5761 5761 5761 5760 5759 5758 5757 5757 5757 5756 5755 5755 5753 5749 5746 5750 5752 5750 5747 5739 5737 5746 5753 5754 5753
5832 5827 5822 5816 5812 5808 5802 5797 5790 5784 5779 5775 5770 5765 5762 5761 5760 5759 5758 5758 5758 5758 5758 5758 5757 5756 5756 5756 5755 5755 5754 5751 5749 5748 5749 5748 5748 5747 5739 5736 5743 5749 5753
5833 5827 5823 5817 5811 5807 5802 5795 5787 5782 5778 5774 5770 5765 5762 5759 5756 5756 5755 5755 5756 5756 5757 5757 5756 5756 5755 5755 5755 5754 5753 5751 5750 5750 5749 5747 5744 5742 5741 5738 5738 5741 5749
5830 5822 5817 5812 5807 5802 5798 5792 5785 5779 5776 5773 5769 5766 5763 5760 5757 5756 5755 5754 5754 5754 5755 5757 5756 5755 5754 5755 5754 5753 5751 5751 5749 5748 5749 5749 5749 5748 5745 5741 5739 5741 5746
5827 5820 5814 5809 5804 5800 5795 5789 5782 5777 5774 5772 5769 5766 5764 5761 5760 5758 5757 5755 5755 5756 5758 5757 5756 5755 5754 5754 5753 5752 5751 5750 5748 5748 5748 5747 5748 5749 5748 5744 5740 5736 5738
5823 5818 5812 5808 5803 5798 5793 5789 5782 5777 5773 5771 5768 5766 5764 5762 5760 5758 5757 5756 5756 5757 5757 5756 5755 5754 5753 5752 5751 5750 5749 5748 5747 5746 5746 5745 5746 5747 5748 5747 5743 5735 5728
5819 5815 5810 5805 5800 5797 5793 5789 5784 5777 5774 5771 5768 5766 5763 5762 5761 5758 5756 5755 5755 5756 5755 5754 5754 5753 5752 5751 5749 5748 5748 5746 5745 5744 5742 5742 5742 5743 5744 5743 5742 5739 5732
5814 5810 5807 5804 5799 5795 5791 5786 5781 5776 5772 5769 5767 5764 5763 5761 5760 5757 5756 5755 5754 5754 5753 5752 5751 5750 5749 5748 5746 5745 5744 5743 5741 5741 5739 5738 5739 5738 5739 5739 5738 5736 5733
5811 5806 5803 5800 5796 5792 5789 5784 5780 5776 5772 5769 5766 5763 5761 5760 5757 5755 5755 5754 5752 5751 5750 5750 5749 5747 5746 5745 5744 5742 5742 5740 5738 5737 5736 5735 5735 5733 5733 5733 5733 5732 5732
5804 5800 5796 5794 5792 5789 5786 5782 5779 5776 5773 5769 5765 5761 5759 5757 5755 5753 5753 5751 5750 5748 5747 5746 5745 5744 5743 5742 5741 5740 5739 5737 5735 5734 5732 5731 5729 5727 5727 5727 5726 5726 5727
5797 5793 5789 5790 5788 5786 5783 5780 5777 5775 5772 5768 5762 5758 5756 5755 5753 5751 5750 5748 5747 5745 5743 5742 5741 5740 5739 5738 5737 5736 5735 5733 5732 5730 5728 5727 5724 5723 5722 5721 5720 5720 5718
5791 5788 5786 5784 5783 5781 5779 5777 5775 5773 5770 5764 5759 5756 5755 5753 5751 5748 5746 5744 5743 5741 5740 5738 5737 5736 5735 5734 5733 5732 5730 5728 5726 5724 5723 5721 5719 5718 5717 5715 5713 5712 5710
5783 5783 5782 5780 5778 5777 5775 5774 5771 5769 5767 5761 5757 5754 5752 5749 5747 5744 5741 5739 5737 5736 5735 5733 5731 5729 5728 5728 5728 5727 5725 5722 5720 5717 5716 5714 5712 5711 5709 5707 5706 5705 5702
5779 5777 5776 5773 5773 5773 5772 5769 5768 5766 5762 5758 5754 5751 5748 5745 5742 5740 5737 5734 5731 5730 5727 5725 5724 5721 5719 5719 5720 5719 5718 5716 5713 5711 5708 5707 5706 5704 5702 5700 5698 5696 5695
5773 5772 5772 5770 5770 5770 5769 5767 5764 5761 5757 5753 5750 5747 5743 5739 5737 5734 5731 5728 5726 5723 5720 5718 5717 5713 5710 5710 5711 5711 5710 5708 5705 5703 5701 5698 5696 5694 5692 5692 5690 5688 5687
5768 5767 5768 5767 5765 5764 5764 5761 5758 5755 5751 5747 5745 5742 5739 5735 5731 5728 5725 5722 5719 5716 5713 5711 5709 5706 5702 5702 5702 5701 5701 5698 5695 5693 5691 5689 5686 5684 5684 5683 5680 5679 5677
5762 5762 5762 5760 5756 5756 5756 5753 5750 5747 5744 5742 5739 5737 5734 5730 5725 5722 5719 5716 5712 5709 5706 5702 5699 5697 5694 5693 5694 5693 5692 5689 5685 5683 5680 5677 5675 5673 5673 5672 5670 5667 5666
5754 5753 5752 5749 5748 5748 5747 5743 5741 5738 5737 5735 5732 5729 5726 5722 5718 5715 5712 5709 5705 5701 5697 5693 5690 5688 5685 5684 5684 5683 5682 5680 5677 5673 5669 5665 5663 5662 5661 5660 5658 5655 5654
5743 5743 5741 5738 5738 5738 5737 5733 5730 5730 5729 5727 5723 5719 5716 5714 5710 5706 5703 5699 5696 5693 5689 5685 5682 5679 5675 5673 5672 5672 5670 5669 5666 5661 5658 5654 5652 5651 5650 5649 5647 5645 5644
5732 5732 5731 5728 5727 5727 5726 5723 5720 5721 5719 5716 5711 5708 5705 5702 5699 5696 5693 5690 5688 5686 5682 5678 5673 5669 5665 5661 5660 5659 5658 5657 5654 5650 5647 5644 5642 5641 5639 5637 5635 5634 5632
5722 5722 5720 5717 5715 5715 5715 5713 5712 5711 5708 5704 5700 5696 5693 5688 5684 5682 5679 5677 5675 5673 5670 5667 5662 5658 5654 5651 5649 5648 5646 5644 5642 5639 5637 5634 5632 5630 5628 5625 5624 5621 5617
5712 5711 5709 5706 5704 5705 5704 5703 5703 5701 5697 5693 5689 5684 5679 5673 5668 5663 5658 5658 5653 5655 5657 5654 5650 5646 5641 5635 5635 5636 5634 5633 5630 5628 5627 5625 5622 5618 5615 5612 5610 5606 5603
5701 5699 5697 5695 5694 5693 5692 5691 5692 5690 5687 5683 5678 5674 5670 5664 5659 5654 5646 5639 5640 5640 5640 5638 5637 5630 5627 5626 5625 5624 5623 5621 5620 5618 5615 5612 5608 5604 5601 5598 5595 5591 5587